Regional Weather Roundup
Issued by NWS

Home | Current Version | Previous Version | Graphics & Text | Print | Product List | Glossary On
Versions: 1 2 3 4 5 6 7 8 9 10 11 12 13 14 15 16 17 18 19 20 21 22 23 24 25 26 27 28 29 30 31 32 33 34 35 36 37 38 39 40 41 42 43 44 45 46 47 48 49 50
000
ASUS43 KMPX 231701
RWRMN
WEATHER ROUNDUP FOR MINNESOTA
NATIONAL WEATHER SERVICE TWIN CITIES/CHANHASSEN MN
1200 PM CDT SUN APR 23 2017


NOTE: "FAIR" INDICATES FEW OR NO CLOUDS BELOW 12,000 FEET WITH NO
SIGNIFICANT WEATHER AND/OR OBSTRUCTIONS TO VISIBILITY. N/A MEANS
CURRENT SKY AND/OR WEATHER CONDITIONS ARE NOT AVAILABLE.

MNZ060>063-068>070-231800-
   Twin Cities Metro

CITY           SKY/WX    TMP DP  RH WIND       PRES   REMARKS
TWIN CITIES    MOSUNNY   60  42  51 VRB3      30.06F
ST PAUL        SUNNY     60  43  53 CALM      30.07F
CRYSTAL        SUNNY     57  40  52 E5        30.06F
BLAINE         PTSUNNY   57  43  58 NE9       30.08F
LAKEVILLE      SUNNY     63  43  48 CALM      30.05F
EDEN PRAIRIE   SUNNY     61  42  49 E5        30.05F
SOUTH ST PAUL  SUNNY     59  42  51 CALM      30.06F
LAKE ELMO      FAIR      59  43  55 NE5       30.08F
$$
MNZ001>005-007-008-013>017-022>024-027-028-231800-
   Northwest Minnesota

CITY           SKY/WX    TMP DP  RH WIND       PRES   REMARKS
BEMIDJI        LGT SNOW  30  27  89 NE8       30.17F VSB 3/4 WCI  23
HALLOCK        CLOUDY    36  12  38 E17       30.21F
ROSEAU         CLOUDY    34  18  51 NE15G21   30.23S WCI  24
WARROAD        CLOUDY    32  16  51 NE12G17   30.24F WCI  23
THIEF RVR FALL CLOUDY    34  12  40 E14       30.20F WCI  25
CROOKSTON      LGT SNOW  34  25  69 E12G21    30.19F WCI  25
FOSSTON        LGT SNOW  30  27  86 NE12G17   30.17F WCI  21
DETROIT LAKES  CLOUDY    37  32  81 E10G17    30.10F
MOORHEAD       CLOUDY    39  34  81 NE17      30.10F
PARK RAPIDS    CLOUDY    34  27  75 E12       30.13F WCI  25
MAHNOMEN       FLURRIES  31  27  85 E16       30.14F WCI  20
$$
MNZ006-009>011-018-025>026-231800-
   North Central Minnesota

CITY           SKY/WX    TMP DP  RH WIND       PRES   REMARKS
BAUDETTE       CLOUDY    33  10  38 NE12      30.21F WCI  24
FLAG ISLAND    MOSUNNY   32   9  37 E3        30.24F
INTL FALLS     MOSUNNY   33  13  43 N7        30.22F WCI  27
WASKISH        CLOUDY    32  25  74 E7        30.20F WCI  26
BIG FORK       CLOUDY    36  21  55 E5        30.19F
LONGVILLE      FLURRIES  30  30 100 NE5       30.16S WCI  25
GRAND RAPIDS   LGT SNOW  32  27  81 VRB6      30.19F WCI  26
CRANE LAKE     CLOUDY    32  19  59 NE3       30.24S
ORR            CLOUDY    34  18  51 MISG      30.18F
COOK           CLOUDY    34  21  60 CALM      30.20F
WALKER         LGT SNOW  30  26  87 E9        30.17S WCI  21
$$
MNZ012-019>021-037-231800-
   Northeast Minnesota

CITY           SKY/WX    TMP DP  RH WIND       PRES   REMARKS
DULUTH         LGT SNOW  33  31  92 E12       30.17R VSB 3/4 WCI  24
ELY            CLOUDY    32  18  55 NE3       30.20S
HIBBING        CLOUDY    32  23  69 NE9       30.18F WCI  24
EVELETH        CLOUDY    35  16  46 NE8       30.19F WCI  28
DULUTH HARBOR  MIX PCPN  34  34 100 NE20      30.21F WCI  22
TWO HARBORS    CLOUDY    37  30  75 E13       30.17F
SILVER BAY     CLOUDY    36  28  75 E7        30.19F
G MARAIS ARPRT CLOUDY    34  12  40 CALM      30.18F
$$
MNZ029>031-032-039>041-046>048-054>057-064-231800-
   West Central Minnesota

CITY           SKY/WX    TMP DP  RH WIND       PRES   REMARKS
FERGUS FALLS   CLOUDY    45  36  70 E10G20    30.05F
WHEATON        MOSUNNY   54  39  58 E16       30.03F
MORRIS         CLOUDY    57  43  58 E15       30.01F
ALEXANDRIA     MOSUNNY   48  38  68 E17       30.06F
ELBOW LAKE     FAIR      49  38  67 E15G21    30.04F
WADENA         CLOUDY    39  32  75 E16       30.09F
GLENWOOD       MOSUNNY   52  41  66 E20       30.05F
APPLETON       MOSUNNY   59  37  44 S7        30.00F
BENSON         MOSUNNY   61  36  39 SE10      30.03F
ORTONVILLE     MOSUNNY   54  43  66 SE8       30.00F
MADISON        MOSUNNY   59  43  55 SE3       30.00F
WILLMAR        FAIR      59  45  58 E12       30.04
$$
MNZ033>034-036-042>043-049>051-058-059-231800-
   Central Minnesota

CITY           SKY/WX    TMP DP  RH WIND       PRES   REMARKS
ST CLOUD       CLOUDY    49  39  68 E8        30.08F
SAUK CENTRE    PTSUNNY   49  39  69 E14G20    30.07F
PAYNESVILLE    SUNNY     54  40  60 NE13      30.06F
AITKIN         CLOUDY    37  30  75 NE10G16   30.14S
PINE RIVER     CLOUDY    34  30  86 E10       30.17F WCI  26
BRAINERD       CLOUDY    40  32  73 NE7       30.13F
STAPLES        CLOUDY    39  30  70 E10       30.11F
LONG PRAIRIE   CLOUDY    43  36  75 NE13G18   30.08F
LITTLE FALLS   CLOUDY    45  34  65 E9        30.10F
LITCHFIELD     MOSUNNY   57  45  62 E9        30.06F
BUFFALO        MOSUNNY   55  40  56 NE7       30.07F
MAPLE LAKE     SUNNY     56  43  62 E8G16     30.08S
HUTCHINSON     CLOUDY    58  43  56 E6        30.06F
$$
MNZ037-044-045-052-053-231800-
   East Central Minnesota

CITY           SKY/WX    TMP DP  RH WIND       PRES   REMARKS
PRINCETON      PTSUNNY   52  39  62 NE9       30.10S
MORA           CLOUDY    43  34  70 NE7       30.14F
CAMBRIDGE      CLOUDY    48  37  66 NE10G17   30.09S
RUSH CITY      CLOUDY    46  38  71 E8        30.12F
MOOSE LAKE     CLOUDY    37  32  81 NE8       30.15S
HINCKLEY       CLOUDY    43  36  75 NE12G18   30.14S
CLOQUET        FLURRIES  34  30  86 E8G16     30.16F WCI  27
MCGREGOR       CLOUDY    34  32  93 NE9       30.16F WCI  26
$$
MNZ071>073-080-081-089-090-097-098-231800-
   Southwest Minnesota

CITY           SKY/WX    TMP DP  RH WIND       PRES   REMARKS
MONTEVIDEO     MOSUNNY   63  39  42 S5        30.01F
GRANITE FALLS  MOSUNNY   62  42  47 S6        30.03F
CANBY          PTSUNNY   58  42  54 CALM      30.00F
MARSHALL       MOSUNNY   65  40  39 W12G17    30.00F
REDWOOD FALLS  SUNNY     62  35  36 CALM      30.03F
OLIVIA         SUNNY     61  37  41 SW5       30.02F
PIPESTONE      SUNNY     64  30  27 SW13G18   30.00F
WINDOM         SUNNY     66  30  26 S16G22    30.03F
WORTHINGTON    MOSUNNY   64  31  28 SW20      30.04F
JACKSON        SUNNY     64  28  25 SW15      30.05F
TRACY          MOSUNNY   67  36  32 SW14G22   30.02F
SLAYTON        MOSUNNY   63  32  31 SW17G25   30.03F
$$
MNZ065>067-074>077-082>085-091>093-231800-
   South Central Minnesota

CITY           SKY/WX    TMP DP  RH WIND       PRES   REMARKS
MANKATO        SUNNY     64  36  35 SW9       30.05F
NEW ULM        SUNNY     63  37  39 W7        30.04F
ST JAMES       SUNNY     66  36  32 S7        30.04F
FAIRMONT       SUNNY     66  34  30 SW13      30.05F
GLENCOE        SUNNY     61  46  58 E5        30.05F
FARIBAULT      SUNNY     64  37  36 SW7       30.06F
OWATONNA       SUNNY     64  34  32 W12       30.06F
WASECA         SUNNY     64  32  29 SW8       30.07F
ALBERT LEA     MOSUNNY   64  27  24 W6        30.06F
$$
MNZ078>079-086>088-094>096-231800-
   Southeast Minnesota

CITY           SKY/WX    TMP DP  RH WIND       PRES   REMARKS
ROCHESTER      SUNNY     66  36  32 W13G18    30.08F
RED WING       SUNNY     64  36  34 SW6       30.05F
STANTON        SUNNY     64  40  41 NW5       30.04F
DODGE CENTER   SUNNY     64  36  34 W10       30.07F
WINONA         SUNNY     68  37  32 W7        30.07F
AUSTIN         SUNNY     64  32  29 W8        30.07F
PRESTON        SUNNY     64  34  33 NW12      30.09F
$$
ABBREVIATIONS USED IN REMARKS
   TC - TEMPERATURES IN CELSIUS
  WCI - WIND CHILL INDEX
   HX - HEAT INDEX
  VSB - VISIBILITY
$$



USA.gov is the U.S. government's official web portal to all federal, state and local government web resources and services.